Location: Cisewo
(53.3833°N, 14.9000°E)
Time: 13:28:45
(UTC+00:00)

Cosmos 1190 Rocket - Pass Details

Date: 18 April 2021
Orbit: 757 x 779 km, 74.1° (Epoch: 16 May)

Event Time Altitude Azimuth Distance (km) Brightness Sun altitude
Exits shadow 20:07:40 21° 168° (SSE) 1,690 5.3 -15.9°
Maximum altitude 20:10:51 44° 106° (ESE) 1,052 4.3 -16.2°
Drops below altitude 10° 20:15:47 10° 36° (NE) 2,305 6.6 -16.7°
Sets 20:18:14 0° 30° (NNE) 3,233 7.5 -16.9°
